Regional Weather Roundup
Issued by NWS

Home | Current Version | Previous Version | Text Only | Print | Product List | Glossary Off
Versions: 1 2 3 4 5 6 7 8 9 10 11 12 13 14 15 16 17 18 19 20 21 22 23 24 25 26 27

000
ASUS45 KTFX 251610
RWRMT
MONTANA REGIONAL WEATHER ROUNDUP
NATIONAL WEATHER SERVICE GREAT FALLS MT
1000 AM MDT SUN JUN 25 2017

NOTE: "FAIR" INDICATES FEW OR NO CLOUDS BELOW 12000 FEET WITH NO
SIGNIFICANT WEATHER AND/OR OBSTRUCTIONS TO VISIBILITY.

MTZ001>007-043-251700-
WEST OF THE DIVIDE

CITY           SKY/WX    TMP DP  RH WIND       PRES   REMARKS
KALISPELL      SUNNY     68  48  48 NE7       30.24S
MISSOULA       SUNNY     65  45  48 VRB3      30.26F
BUTTE          SUNNY     63  38  39 VRB3      30.36F
MULLAN PASS    SUNNY     62  37  39 SE8       30.33S
ANACONDA         N/A     66  41  39 SE5       30.33F
DEER LODGE       N/A     63  43  48 CALM      30.35F
EUREKA           N/A     66  45  45 MISG      30.24F
HAMILTON         N/A     66  43  42 CALM      30.27F
$$

MTZ008-052>055-251700-
SOUTHWEST MONTANA

CITY           SKY/WX    TMP DP  RH WIND       PRES   REMARKS
BOZEMAN        SUNNY     64  41  42 N6        30.34F
DILLON         SUNNY     62  39  42 NE7       30.36S
W YELLOWSTONE  SUNNY     59  36  41 CALM      30.42F
ENNIS          SUNNY     61  39  44 W5        30.41F
THREE FORKS      N/A     64  41  43 CALM      30.30F
$$

MTZ009-010-012-014-046-048-049-054-251700-
EAST SLOPES AND CENTRAL MONTANA

CITY           SKY/WX    TMP DP  RH WIND       PRES   REMARKS
CUT BANK       SUNNY     63  44  50 SE10      30.29F
GREAT FALLS    SUNNY     66  42  41 SE6       30.30F
MALMSTROM AFB  SUNNY     64  45  49 CALM      30.30F
HELENA         SUNNY     64  42  44 CALM      30.31F
CHOTEAU          N/A     66  43  42 SE5G12    30.32S
$$

MTZ011-013-016-021-045-047-050-051-251700-
NORTH CENTRAL MONTANA

CITY           SKY/WX    TMP DP  RH WIND       PRES   REMARKS
HAVRE          SUNNY     68  42  38 E3        30.30S
LEWISTOWN      SUNNY     65  40  39 CALM      30.33F
N BAR RANCH      N/A     64  36  34 CALM      30.37F
CHINOOK          N/A     66  43  42 CALM      30.30S
FORT BENTON      N/A    N/A N/A N/A MISG      30.32S
$$

MTZ017>020-022>027-061-062-251700-
NORTHEAST MONTANA

CITY           SKY/WX    TMP DP  RH WIND       PRES   REMARKS
GLASGOW        SUNNY     68  39  34 NW5       30.27F
JORDAN           N/A     71  33  24 MISG      30.28F
SIDNEY         PTSUNNY   62  38  40 CALM      30.27F
WOLF POINT     SUNNY     68  41  37 E5        30.27F
MALTA          SUNNY     70  43  37 W9        30.28S
PLENTYWOOD       N/A     63  46  55 CALM      30.27F
POPLAR           N/A     64  39  39 NE5       30.28S
$$

MTZ028>42-056>058-251700-
SOUTHCENTRAL AND SOUTHEAST MONTANA

CITY           SKY/WX    TMP DP  RH WIND       PRES   REMARKS
BAKER          SUNNY     72  30  21 W15G21    30.29S
BILLINGS       SUNNY     65  42  43 S6        30.32F
LIVINGSTON     SUNNY     63  40  42 CALM      30.35F
MILES CITY     SUNNY     72  30  21 VRB5      30.28F
BIG TIMBER     SUNNY     64  39  39 VRB6      30.37F
FORSYTH          N/A     66  36  32 W3        30.29F
ROUNDUP          N/A     68  36  30 NW1       30.21F
$$

REGIONAL REPORTS...DAKOTAS

CITY           SKY/WX    TMP DP  RH WIND       PRES   REMARKS
WILLISTON      SUNNY     62  48  60 S3        30.28S
MINOT          CLOUDY    61  46  57 NW9       30.23F
DICKINSON      MOSUNNY   63  33  32 NE8       30.27S
BEACH            N/A     70  30  23 W15G24    30.30R
CROSBY           N/A     63  46  55 N9        30.27S
TIOGA          CLOUDY    59  55  88 NW10      30.28S
WATFORD CITY   PTSUNNY   57  46  67 CALM      30.27S
BISMARCK       CLOUDY    55  41  59 S6        30.28F
GRAND FORKS    PTSUNNY   59  46  62 N8        30.22F
FARGO          MOSUNNY   63  43  48 NW16      30.23F
BUFFALO SD       N/A     70  30  22 CALM      30.23F
RAPID CITY     SUNNY     68  35  29 S13       30.32F
$$

REGIONAL REPORTS...WYOMING/IDAHO/WASHINGTON

CITY           SKY/WX    TMP DP  RH WIND       PRES   REMARKS
GILLETTE       SUNNY     66  38  35 VRB6      30.33F
SHERIDAN       MOSUNNY   67  43  41 CALM      30.33F
BUFFALO WY     SUNNY     66  36  32 N6        30.37S
CODY           SUNNY     64  33  31 VRB3      30.39F
YELLOWSTONE LA   N/A     53  38  56 E5        30.50S
IDAHO FALLS    SUNNY     68  47  46 N6        30.29S
SALMON         SUNNY     64  45  48 MISG      30.29R
BOISE          SUNNY     77  42  28 S10       30.13F
SPOKANE        MOSUNNY   70  45  40 NE9       30.13F
$$

REGIONAL REPORTS...ALBERTA

CITY           SKY/WX    TMP DP  RH WIND       PRES   REMARKS
EDMONTON       SUNNY     70  50  49 S10       30.21S
CALGARY        MOSUNNY   66  45  45 S9        30.24F
LETHBRIDGE     SUNNY     66  48  52 SE6       30.25F
MEDICINE HAT   MOSUNNY   68  46  45 S6        30.26F
WATERTON GATE    N/A     66  46  48 S2          N/A
$$

REGIONAL REPORTS...SASKATCHEWAN

CITY           SKY/WX    TMP DP  RH WIND       PRES   REMARKS
SWIFT CURRENT  SUNNY     61  50  67 NW9       30.28F
REGINA         MOSUNNY   63  43  48 E6        30.28S
SASKATOON      MOSUNNY   63  43  48 E7        30.31R
CYPRESS HILLS    N/A     61  41  48 NW6         N/A
VAL MARIE        N/A     68  39  34 N6          N/A
ROCKGLEN         N/A     64  41  42 N6          N/A
ASSINIBOIA       N/A     66  50  55 SE9         N/A
$$




USA.gov is the U.S. government's official web portal to all federal, state and local government web resources and services.